Weather History for CYVQ - September, 2012

Change the Weather History Date:

Tuesday, September 25, 2012

  Actual Average Record
Temperature  
Mean Temperature 46 °F -  
Max Temperature 61 °F 33 °F 66 °F (1997)
Min Temperature 31 °F 20 °F 19 °F (2014)
Degree Days  
Heating Degree Days 19    
Moisture  
Dew Point 40 °F    
Average Humidity 72    
Maximum Humidity 100    
Minimum Humidity 31    
Precipitation  
Precipitation 0.00 in 0.04 in - ()
Sea Level Pressure  
Sea Level Pressure 29.93 in    
Wind  
Wind Speed 7 mph ()    
Max Wind Speed 14 mph    
Max Gust Speed 21 mph    
Averages and records for this station are not official NWS values.
T = Trace of Precipitation, MM = Missing Value Source: Averaged Metar Reports

Daily Weather History Graph

Daily Weather History Graph

Search for Another Location

Airport or City:

Trip Planner

Search our weather history database for the weather conditions in past years. The results will help you decide how hot, cold, wet, or windy it might be!

Date:

Astronomy

Sep. 25, 2012 Rise Set
Actual Time 8:20 AM MDT 8:14 PM MDT
Civil Twilight 7:31 AM MDT 9:04 PM MDT
Nautical Twilight 6:30 AM MDT 10:04 PM MDT
Astronomical Twilight 5:22 AM MDT 11:11 PM MDT
Moon 6:57 PM MDT (9/25) 2:15 AM MDT (9/25)
Length of Visible Light 13h 33m
Length of Day
11h 53m
Waxing Gibbous, 80% of the Moon is Illuminated
Sep 25
Waxing Gibbous
Sep 29
Full
Oct 8
Last Quarter
Oct 15
New
Oct 21
First Quarter

Hourly Weather History & Observations

Time (MDT) Temp. Windchill Dew Point Humidity Pressure Visibility Wind Dir Wind Speed Gust Speed Precip Events Conditions
12:00 AM 50 °F - 41 °F 63% 29.92 in 28 mi WNW 6.9 mph - -   Scattered Clouds
12:00 AM 50.0 °F - 41.0 °F 71% 29.92 in 30.0 mi WNW 6.9 mph - N/A   Mostly Cloudy
1:00 AM 48.2 °F - 41.0 °F 76% 29.93 in 30.0 mi West 9.2 mph - N/A   Mostly Cloudy
2:00 AM 50.0 °F - 42.8 °F 76% 29.93 in 30.0 mi West 13.8 mph - N/A   Mostly Cloudy
3:00 AM 48.2 °F - 42.8 °F 82% 29.94 in 30.0 mi WNW 8.1 mph - N/A   Mostly Cloudy
4:00 AM 46.4 °F 41.5 °F 42.8 °F 87% 29.95 in 30.0 mi West 10.4 mph - N/A   Scattered Clouds
5:00 AM 44.6 °F 39.7 °F 41.0 °F 87% 29.96 in 30.0 mi West 9.2 mph - N/A   Partly Cloudy
6:00 AM 42 °F - 40 °F 92% 29.96 in 28 mi NNW 4.6 mph - -   Scattered Clouds
6:00 AM 41.0 °F 38.0 °F 41.0 °F 100% 29.96 in 30.0 mi NNW 4.6 mph - N/A   Partly Cloudy
7:00 AM 41.0 °F 38.0 °F 39.2 °F 93% 29.97 in 30.0 mi North 4.6 mph - N/A   Partly Cloudy
8:00 AM 33.8 °F - 33.8 °F 100% 29.98 in 30.0 mi Calm Calm - N/A Fog Shallow Fog
9:00 AM 32.0 °F 28.7 °F 32.0 °F 100% 29.99 in 30.0 mi NE 3.5 mph - N/A Fog Shallow Fog
10:00 AM 41.0 °F 39.0 °F 41.0 °F 100% 29.99 in 30.0 mi East 3.5 mph - N/A   Partly Cloudy
11:00 AM 46.4 °F 45.2 °F 42.8 °F 87% 29.99 in 30.0 mi ESE 3.5 mph - N/A   Partly Cloudy
12:00 PM 48 °F - 44 °F 79% 29.99 in 28 mi SE 5.8 mph - -   Clear
12:00 PM 48.2 °F - 42.8 °F 82% 29.99 in 30.0 mi SE 6.9 mph - N/A   Partly Cloudy
1:00 PM 51.8 °F - 42.8 °F 71% 29.97 in 30.0 mi SE 6.9 mph - N/A   Partly Cloudy
2:00 PM 55.4 °F - 42.8 °F 63% 29.96 in 30.0 mi SE 6.9 mph - N/A   Partly Cloudy
3:00 PM 57.2 °F - 41.0 °F 55% 29.94 in 30.0 mi SE 8.1 mph - N/A   Partly Cloudy
4:00 PM 57.2 °F - 41.0 °F 55% 29.92 in 30.0 mi SE 9.2 mph - N/A   Partly Cloudy
6:00 PM 61 °F - 38 °F 31% 29.88 in 28 mi ESE 12.7 mph - -   Scattered Clouds
6:00 PM 60.8 °F - 39.2 °F 45% 29.88 in 30.0 mi ESE 12.7 mph - N/A   Partly Cloudy
7:00 PM 60.8 °F - 39.2 °F 45% 29.86 in 30.0 mi ESE 6.9 mph - N/A   Partly Cloudy
8:00 PM 57.2 °F - 37.4 °F 48% 29.84 in 30.0 mi East 6.9 mph - N/A   Partly Cloudy
9:00 PM 55.4 °F - 37.4 °F 51% 29.81 in 30.0 mi East 10.4 mph - N/A   Partly Cloudy
10:00 PM 55.4 °F - 37.4 °F 51% 29.79 in 30.0 mi East 13.8 mph 20.7 mph N/A   Scattered Clouds
11:00 PM 53.6 °F - 35.6 °F 51% 29.77 in 40.0 mi East 9.2 mph 17.3 mph N/A   Scattered Clouds